Regional Weather Roundup
Issued by NWS

Home | Current Version | Previous Version | Text Only | Print | Product List | Glossary On
Versions: 1 2 3 4 5 6 7 8 9 10 11 12 13 14 15 16 17 18 19 20 21 22 23 24 25 26 27 28 29 30 31 32 33 34 35 36 37 38 39 40 41 42 43 44 45 46 47 48 49
000
ASUS45 KREV 271010
RWRNV
NEVADA REGIONAL WEATHER ROUNDUP
NATIONAL WEATHER SERVICE RENO NV
200 AM PST TUE JAN 27 2015

NOTE: "FAIR" INDICATES FEW OR NO CLOUDS BELOW 12,000 FEET WITH NO
SIGNIFICANT WEATHER AND/OR OBSTRUCTIONS TO VISIBILITY.

NVZ001-003-004-271100-
WESTERN NEVADA

CITY           SKY/WX    TMP DP  RH WIND       PRES   REMARKS
RENO           CLOUDY    42  29  59 N3        30.07S
CARSON CITY    CLOUDY    37  25  60 E6        30.08S
FALLON         CLOUDY    41  26  55 S6        30.07S
LOVELOCK       CLOUDY    34  22  61 S5        30.07R
HAWTHORNE      CLOUDY    50  36  57 SE14      30.09F
$$

NVZ002-CAZ072-073-271100-
NORTHERN AND CENTRAL SIERRA

CITY           SKY/WX    TMP DP  RH WIND       PRES   REMARKS
S. LAKE TAHOE  CLOUDY    38  26  62 CALM      30.11F
TRUCKEE        CLOUDY    32  27  80 CALM      30.13S
SQUAW VLY 8000   N/A     37  19  48 CALM        N/A
SUSANVILLE     CLEAR     34  32  93 W5        30.06F
BLUE CANYON    CLOUDY    49  20  31 SE5       30.13R
MAMMOTH LAKES  FLURRIES  32  32 100 W8        30.16F
BRIDGEPORT     CLOUDY    44  21  40 CALM      30.10S
$$

NVZ030-031-036-271100-
NORTHERN NEVADA

CITY           SKY/WX    TMP DP  RH WIND       PRES   REMARKS
ELKO           MOCLDY    33  27  78 E3        30.12S
WINNEMUCCA     CLOUDY    30  26  85 SE9       30.06S
WENDOVER       MOCLDY    30  27  86 CALM      30.20R
$$

NVZ035-037-271100-
CENTRAL NEVADA

CITY           SKY/WX    TMP DP  RH WIND       PRES   REMARKS
ELY            CLOUDY    36  27  69 S12       30.21R
EUREKA           N/A     44  25  47 S8        30.15F
$$

NVZ013-014-271100-
SOUTH CENTRAL NEVADA

CITY           SKY/WX    TMP DP  RH WIND       PRES   REMARKS
TONOPAH        LGT RAIN  42  39  89 E6        30.18F
$$

NVZ017-020-022-271100-
SOUTHERN NEVADA

CITY           SKY/WX    TMP DP  RH WIND       PRES   REMARKS
LAS VEGAS      LGT RAIN  51  48  89 S6        30.17R FOG
N. LAS VEGAS   LGT RAIN  52  48  86 S6        30.20R
NELLIS AFB     CLOUDY    52  52 100 SW6       30.21R
HENDERSON      LGT RAIN  50  48  93 NW5       30.22S FOG
MERCURY        LGT RAIN  48  46  93 SW3       30.16R
$$


USA.gov is the U.S. government's official web portal to all federal, state and local government web resources and services.